Temperature
21 21 20 20 19 20 22 24 25 25 25 25 25 24 23 22 21 20 20 20 20 20 20 20 20 20 20 20 20 20 20 19 19 19 19 19 19 19 19 19 19 19 19 19 19 19 19 18 18
21 21 20 20 20 21 23 25 25 25 25 25 24 23 22 21 20 20 20 20 20 20 20 20 20 20 20 20 20 20 19 19 19 19 19 19 19 19 19 19 19 19 19 19 19 19 19 19 18
21 21 20 20 21 22 24 25 25 26 26 25 24 23 22 21 20 20 20 20 20 20 20 20 20 20 20 20 20 20 20 20 19 19 19 19 19 19 19 19 19 19 19 19 19 19 19 19 19
21 21 20 20 22 24 25 26 26 26 25 25 24 23 22 22 21 21 21 21 21 20 20 20 20 20 20 20 20 20 20 20 19 19 19 19 19 19 19 19 19 19 19 19 19 19 19 18 18
21 21 21 22 23 25 26 27 26 25 25 24 23 22 21 22 22 21 21 21 21 20 20 20 20 20 20 20 20 20 19 19 19 19 19 19 19 19 19 19 19 19 19 19 19 19 18 18 18
22 21 21 22 25 26 26 26 26 25 25 24 23 22 21 21 21 21 21 21 21 21 20 20 20 20 20 20 20 19 19 19 19 19 19 19 19 19 19 19 19 19 19 19 19 19 18 18 18
21 21 22 24 25 26 26 27 26 25 25 24 23 21 21 21 21 21 21 21 21 21 20 20 20 20 20 20 20 20 19 19 19 19 19 19 19 19 19 19 19 19 19 19 19 19 19 19 19
23 22 23 24 25 26 27 27 27 26 25 24 24 22 21 21 21 21 21 21 21 20 20 20 20 20 20 20 20 20 20 19 19 19 19 19 19 19 19 19 19 19 19 19 19 19 19 19 19
24 22 23 25 26 26 27 27 26 26 25 24 24 23 22 22 21 21 21 20 20 20 20 20 20 20 20 20 20 20 20 19 19 19 19 19 19 19 19 19 19 19 19 19 19 19 19 19 19
23 22 25 27 27 27 27 27 26 25 24 24 23 23 22 22 21 21 21 21 20 20 20 20 20 20 20 20 20 20 20 19 19 19 19 19 19 19 19 19 19 19 19 19 19 19 19 19 19
24 24 27 28 28 28 27 27 27 25 23 23 23 22 22 22 21 21 21 21 21 21 20 20 20 20 20 20 20 20 20 19 19 19 19 19 19 19 19 19 19 19 19 19 19 19 19 19 19
25 26 28 28 29 28 28 27 27 26 25 24 24 23 22 22 22 21 21 21 21 20 20 20 20 20 20 20 20 20 20 19 19 19 19 19 19 19 19 19 19 19 19 19 19 19 19 19 19
26 27 28 28 29 28 28 27 26 26 25 24 24 23 23 22 22 22 22 21 21 21 20 20 20 20 20 20 20 20 19 19 19 19 19 19 19 19 19 19 19 19 19 19 19 19 19 19 19
27 27 28 28 28 28 27 27 26 25 25 24 23 23 23 23 22 22 22 21 21 21 20 20 20 20 20 20 20 19 19 19 19 19 19 19 19 19 19 19 19 19 19 19 19 19 19 19 19
27 27 27 27 27 27 27 26 26 25 25 24 23 23 23 22 22 22 22 21 21 21 21 20 20 20 20 20 19 19 19 19 19 19 19 19 19 19 19 19 19 19 19 19 19 19 19 19 19
26 25 25 27 27 27 26 24 26 26 25 24 23 23 23 22 22 22 22 22 21 21 21 20 20 20 20 20 19 19 19 19 19 19 19 19 19 19 19 19 19 19 19 19 19 19 19 19 19
24 24 25 26 27 27 26 25 26 26 25 24 23 23 22 22 22 22 22 22 21 21 21 20 20 20 20 19 19 19 19 19 19 19 19 19 19 19 19 19 19 19 19 19 19 19 19 19 19
24 24 25 25 26 26 25 24 25 25 25 24 23 23 22 22 22 22 22 22 21 21 21 20 20 20 20 19 19 19 19 19 19 19 19 19 19 19 19 19 19 19 19 19 19 19 19 19 19
25 25 25 25 26 25 25 25 25 25 25 24 23 23 22 22 22 22 22 22 21 21 21 21 20 20 20 20 20 19 19 19 19 19 19 19 19 19 19 19 19 19 19 19 19 19 19 19 19
26 25 25 25 26 26 24 25 25 25 25 24 23 23 23 22 22 22 22 22 21 21 21 20 20 20 20 20 20 19 19 19 19 19 19 19 19 19 19 19 19 19 19 19 19 19 19 19 19
26 25 25 25 26 25 25 24 24 25 25 25 24 23 23 23 22 22 22 22 21 21 21 20 20 20 20 20 19 19 19 19 19 19 19 19 19 19 19 19 19 19 19 19 19 19 19 19 19
26 27 27 26 24 23 24 22 23 23 24 24 24 24 23 23 23 22 22 22 22 21 21 21 20 20 20 19 19 19 19 19 19 19 19 19 19 19 19 19 19 19 19 19 19 18 18 19 18
27 27 26 26 24 23 23 22 22 23 23 23 23 24 23 24 23 23 22 22 22 21 21 21 20 20 19 19 19 19 19 19 19 19 19 19 19 19 18 18 18 19 19 19 18 18 18 18 18
28 26 25 23 21 22 23 22 22 22 23 23 23 24 24 24 23 23 22 22 22 21 21 21 20 20 20 19 19 19 19 19 19 18 18 18 18 18 18 18 18 18 18 18 18 18 18 18 18
26 23 22 22 21 22 22 23 22 23 24 24 24 24 24 24 23 23 22 22 22 21 21 21 20 20 20 19 19 19 19 19 19 18 18 18 18 18 18 18 18 18 18 18 18 18 18 18 18
25 23 22 23 22 22 22 22 22 24 24 25 24 24 24 23 23 23 22 22 22 21 21 21 21 20 20 19 19 19 19 19 18 18 18 18 18 18 18 18 18 18 18 18 18 18 18 17 17
26 24 23 22 22 22 22 22 23 23 23 23 23 23 23 23 23 23 22 22 22 22 21 21 21 20 20 20 19 19 19 19 18 18 18 18 18 18 18 18 18 18 18 17 17 17 17 17 17
26 24 21 21 22 22 23 22 21 22 22 22 22 22 22 23 23 23 23 22 22 22 21 21 21 21 20 20 19 19 19 19 19 18 18 18 18 18 18 18 17 17 17 17 17 17 17 17 17
26 25 22 20 21 21 21 22 23 22 22 22 21 22 22 22 22 22 22 22 22 21 21 21 21 20 20 20 20 19 19 19 18 18 18 18 18 18 17 17 17 17 17 17 17 17 17 17 17
26 25 22 22 22 20 20 21 23 22 22 22 22 22 22 22 22 22 22 22 21 21 21 21 21 20 20 20 19 19 19 18 18 18 18 18 17 17 17 17 17 17 17 17 17 17 17 17 17
Wind_Speed
10 7 3 1 1 2 1 1 4 5 5 6 10 10 9 7 5 6 3 10 12 10 10 13 14 14 14 13 12 12 12 12 13 14 13 13 13 13 13 14 14 13 13 13 12 12 11 11 11
7 5 2 0 2 2 1 2 7 7 9 10 11 11 9 7 7 9 6 10 12 11 10 13 14 14 13 13 12 12 12 12 13 14 14 13 13 13 13 13 13 13 13 12 11 11 10 9 9
5 4 0 1 1 2 1 4 8 9 8 7 6 7 6 6 7 6 8 14 11 10 11 13 15 14 13 13 12 12 12 13 13 14 13 13 13 13 12 13 12 12 12 11 10 10 9 8 7
2 1 1 1 1 2 3 5 8 9 7 7 8 7 4 4 5 9 13 14 13 10 11 13 15 14 13 13 13 12 12 13 13 13 12 12 12 12 12 12 12 12 11 10 10 9 8 7 6
1 1 1 0 1 2 5 6 7 8 5 8 9 8 4 3 10 14 14 14 13 10 10 13 15 14 13 14 13 12 12 12 12 12 12 11 11 11 11 11 11 11 10 10 9 8 7 5 5
1 1 1 1 2 4 5 7 9 11 11 10 9 8 4 6 11 13 13 12 11 11 9 11 14 14 14 13 13 12 12 11 11 11 11 11 11 10 11 10 10 10 9 9 8 7 5 4 5
1 1 1 2 3 4 5 6 8 9 10 7 8 7 5 6 10 12 11 11 10 10 8 8 10 12 13 13 12 12 11 11 10 11 11 11 11 10 10 10 10 9 9 8 7 7 6 5 5
3 1 1 2 5 3 4 4 7 9 8 10 7 7 7 8 11 11 10 9 9 8 8 7 8 9 9 10 12 11 11 10 10 10 10 10 10 9 9 9 9 9 8 8 7 7 6 5 5
1 0 2 3 5 5 6 7 6 7 9 6 5 6 9 13 14 11 9 7 7 8 6 7 7 7 8 9 10 10 10 10 9 8 9 8 6 7 8 9 9 9 9 8 8 7 6 5 5
3 2 5 4 6 7 7 9 6 7 10 8 9 10 13 14 13 12 11 10 9 8 7 6 7 7 7 7 8 7 7 7 7 6 6 6 6 6 7 9 10 9 9 8 7 7 6 5 5
4 5 3 2 6 8 8 7 5 10 7 10 14 14 13 13 12 11 11 10 9 8 8 7 8 7 6 4 5 5 5 5 6 6 6 6 5 4 4 4 6 7 7 6 5 5 5 5 5
2 5 3 3 5 7 7 6 6 8 9 13 15 15 13 12 11 11 10 9 8 8 7 6 7 7 6 5 4 4 4 4 4 5 6 5 3 2 3 3 4 4 4 4 4 3 4 5 6
3 4 2 3 4 7 9 8 7 8 13 15 15 14 13 12 10 9 9 9 9 8 7 7 6 6 5 4 3 4 3 4 4 5 5 6 3 3 3 2 3 4 5 4 3 3 4 4 4
4 3 1 2 4 6 9 7 8 10 15 15 15 13 12 11 10 9 8 8 8 7 7 6 6 5 5 4 3 3 4 4 4 4 5 6 5 3 3 2 2 3 4 4 4 4 3 3 2
3 2 3 1 2 4 8 4 8 13 15 14 14 13 12 10 10 10 10 9 8 7 7 7 7 5 5 4 4 3 4 5 3 3 5 6 5 4 3 2 2 2 3 3 3 2 2 2 1
4 3 1 4 1 4 6 4 8 14 15 13 13 13 11 10 10 10 10 9 8 8 7 7 7 6 4 4 3 3 3 3 3 4 4 5 5 5 3 2 2 2 1 1 1 1 0 1 0
4 1 2 4 2 2 4 5 8 11 14 13 12 12 10 9 8 8 10 10 8 8 8 7 6 6 4 3 3 3 3 2 2 3 3 4 5 5 4 2 1 2 1 0 1 0 1 0 1
3 2 2 3 3 1 2 4 6 10 13 13 12 12 11 10 9 9 10 10 9 8 8 7 6 5 4 3 3 2 2 1 1 1 3 4 4 4 3 2 1 1 1 0 0 1 0 1 0
5 3 3 4 3 0 2 4 8 10 10 12 11 12 12 11 9 9 10 10 9 8 8 7 6 5 4 2 2 2 1 1 1 1 2 3 3 3 3 1 1 1 1 1 1 1 1 1 0
3 2 3 4 3 1 2 3 6 10 14 15 15 14 13 11 9 10 9 9 10 9 8 7 7 6 5 3 3 2 2 1 2 1 1 2 2 2 3 2 1 1 1 1 1 1 1 0 1
4 6 6 4 2 1 1 1 2 4 6 9 12 14 14 14 13 12 11 10 10 9 9 8 7 6 5 4 3 2 2 2 1 1 0 1 2 2 2 3 2 1 1 1 1 1 2 1 1
5 8 5 4 1 2 1 2 5 4 5 8 10 11 13 13 12 12 11 11 11 10 9 8 7 5 5 5 4 4 4 2 2 2 1 1 1 2 2 2 2 2 1 1 1 1 1 2 0
6 6 4 3 2 1 2 2 6 2 5 8 10 13 14 13 13 13 12 12 11 10 9 8 7 6 5 5 5 5 3 2 2 2 2 1 0 1 1 2 2 1 1 1 1 0 1 1 2
4 3 3 4 4 1 3 2 5 5 9 8 8 11 13 13 12 11 10 9 9 8 8 8 8 6 5 5 5 5 5 4 3 2 2 1 1 1 1 1 1 2 1 1 1 1 1 1 1
3 5 3 4 3 4 3 2 6 6 7 10 10 10 11 11 11 11 10 10 9 9 8 9 9 7 6 6 5 5 5 5 4 3 3 2 1 1 1 1 1 1 1 2 1 1 1 1 1
4 7 7 4 4 4 2 3 5 5 2 6 7 6 8 9 9 10 11 11 10 11 10 9 9 7 7 6 5 4 5 4 3 3 3 3 2 2 2 1 1 1 1 1 1 0 1 1 1
5 3 7 6 2 1 3 3 4 2 3 4 5 6 6 9 9 9 9 10 11 11 11 11 11 8 7 7 6 4 4 4 4 3 3 2 2 2 2 2 2 1 1 1 1 1 1 1 1
7 7 5 5 4 2 3 3 4 3 2 4 5 6 5 6 8 8 9 9 10 10 9 9 9 9 7 7 6 5 4 4 4 3 3 2 2 2 2 2 2 1 1 1 1 0 1 0 1
2 2 4 4 5 6 3 6 4 7 6 6 6 6 6 6 8 7 6 5 7 7 7 7 7 7 6 6 5 4 4 4 4 4 4 3 2 2 2 2 2 2 1 1 1 1 0 0 1
5 4 6 4 3 4 4 5 2 6 7 7 6 6 6 6 6 6 6 6 7 6 7 6 6 6 6 6 5 4 3 2 3 3 3 3 2 2 3 2 2 2 2 2 2 2 1 1 1
Wind_Direction
169 166 166 188 31 34 15 101 113 89 67 62 77 84 83 69 97 127 146 139 138 143 145 138 133 131 130 129 126 127 129 131 130 128 128 128 129 128 130 134 136 137 136 135 133 131 130 128 129
164 173 185 44 59 51 339 105 98 99 119 108 85 84 78 72 89 115 130 143 141 143 143 140 137 135 134 132 128 126 129 133 132 132 131 132 133 132 130 132 135 136 135 134 133 133 132 132 132
174 197 181 39 70 165 153 118 115 106 110 104 91 68 75 103 116 132 148 146 141 138 140 143 141 139 138 136 132 128 128 133 134 134 135 135 136 136 135 135 135 136 136 135 135 137 139 143 147
169 152 40 55 209 209 150 129 122 110 84 79 97 77 66 104 127 140 143 142 138 139 144 147 143 141 141 140 138 133 131 132 135 137 138 139 140 139 139 139 139 140 140 139 140 142 148 156 164
163 103 60 74 201 141 113 108 121 113 99 96 98 100 84 74 121 135 141 142 141 146 149 150 147 144 143 143 143 140 136 136 136 137 140 141 143 144 145 144 144 145 145 146 147 150 154 160 161
41 60 63 71 102 97 100 106 105 104 112 110 104 107 111 131 130 142 141 142 144 149 152 151 151 147 145 145 147 147 145 143 142 143 144 145 144 144 147 149 150 153 155 157 159 161 161 166 168
150 85 219 167 129 113 126 115 115 124 128 129 125 105 122 142 141 140 136 134 137 141 146 153 154 153 152 151 152 153 152 151 151 152 153 154 154 154 157 160 162 163 165 168 170 173 180 186 189
183 172 265 154 130 135 139 107 123 124 116 127 121 125 152 163 144 132 130 129 132 139 144 150 152 154 155 158 161 162 160 158 156 154 155 157 162 166 170 172 175 177 180 184 188 192 197 203 210
173 93 233 187 146 147 134 110 104 100 108 108 99 126 147 144 136 130 125 126 141 147 154 152 155 157 156 162 166 167 165 164 163 163 164 164 169 175 183 186 187 189 191 195 202 209 215 217 230
175 198 226 193 153 147 138 127 128 106 103 104 102 114 130 137 140 141 144 147 152 159 166 165 165 165 166 166 163 170 169 168 168 170 169 170 176 189 193 199 201 202 203 209 217 225 231 235 245
193 211 230 155 146 137 135 135 124 121 126 144 143 143 141 143 145 148 154 155 158 161 163 167 168 168 168 162 163 169 166 163 170 175 173 172 176 187 192 192 205 209 210 216 223 230 231 234 238
235 244 227 177 147 139 142 133 115 130 154 153 147 145 144 146 148 153 154 152 151 149 153 158 159 155 158 158 164 166 165 171 177 181 182 175 168 169 181 185 195 198 207 211 218 222 232 242 248
231 260 225 165 144 134 127 128 120 124 136 137 140 143 148 149 149 151 144 139 138 143 146 148 144 142 144 140 157 158 163 170 179 178 183 173 162 179 179 180 191 204 209 211 217 226 232 239 241
256 270 176 122 113 126 129 132 120 140 141 141 144 148 150 147 146 144 137 134 137 138 141 139 136 135 135 138 145 153 162 165 168 175 180 177 173 173 174 180 190 208 212 213 212 223 226 233 210
307 342 7 17 122 141 119 108 145 152 144 146 152 150 150 148 146 151 152 144 146 143 137 141 138 135 132 137 150 148 157 157 161 177 183 177 173 175 171 177 196 216 222 212 212 223 213 217 215
346 27 354 281 148 153 118 170 175 156 149 152 154 153 153 155 156 154 151 145 147 143 138 144 141 135 136 131 132 140 148 150 168 177 177 181 176 170 162 161 187 204 204 191 193 196 183 286 251
16 9 273 292 270 161 133 192 185 163 155 155 155 155 155 157 156 154 153 152 151 150 146 146 140 144 148 140 135 131 132 138 169 170 173 185 178 168 157 163 189 180 145 140 213 137 155 224 268
227 238 276 281 287 345 157 186 175 170 161 158 158 158 160 165 170 163 158 157 155 152 145 146 144 146 145 134 112 96 99 120 151 160 173 172 172 166 159 165 181 144 123 81 74 139 119 183 246
196 205 240 260 260 197 221 186 178 172 166 163 164 164 166 173 172 163 158 156 156 156 151 154 151 152 144 138 140 137 153 169 158 171 162 160 161 159 157 157 158 142 154 184 149 144 83 345 53
196 200 249 274 276 227 234 217 188 174 180 176 170 171 171 170 168 168 162 160 163 167 164 163 164 164 166 169 167 162 150 152 149 136 122 148 149 157 153 144 161 175 151 102 74 101 95 316 98
230 201 207 218 316 350 114 323 232 206 176 175 175 174 173 175 174 174 171 172 172 173 171 172 173 170 170 161 135 117 84 61 57 58 109 201 160 149 131 142 144 156 144 158 178 141 144 189 288
229 229 208 199 143 275 166 229 272 208 190 181 181 177 178 179 176 178 174 175 179 179 173 168 165 160 165 154 144 141 144 153 189 182 187 211 137 133 142 136 143 148 139 161 208 164 158 142 219
214 210 176 160 145 19 8 128 277 207 199 201 187 183 183 179 178 181 179 178 179 177 172 166 157 155 156 153 154 153 152 163 160 143 141 164 186 159 145 138 141 155 166 188 196 133 141 152 167
167 76 47 52 73 9 250 164 268 226 204 195 194 186 184 179 177 178 175 165 166 167 167 163 156 161 159 156 160 160 157 154 142 152 158 171 199 227 210 145 157 172 184 196 201 200 180 191 181
89 94 44 0 1 257 260 168 248 256 199 182 183 188 185 178 170 170 167 167 167 169 172 167 161 168 170 162 164 169 168 161 167 177 179 173 169 201 245 214 196 199 205 198 190 170 232 206 192
201 144 156 191 218 268 311 232 258 278 190 161 161 166 167 168 171 172 175 175 174 177 178 171 169 174 176 173 176 178 176 173 182 181 172 181 191 201 206 207 206 206 186 193 171 170 243 213 215
159 175 168 143 162 188 262 270 302 7 68 96 125 138 156 169 169 172 177 179 180 181 182 179 176 176 177 179 173 178 181 178 181 178 168 174 197 198 203 205 203 217 204 196 162 165 247 241 235
153 156 100 119 153 220 261 248 234 233 181 130 132 142 153 157 166 170 177 183 186 185 180 176 175 177 178 177 178 178 185 184 182 171 179 191 203 201 174 179 183 192 204 192 149 159 264 233 271
129 107 113 129 157 160 214 264 222 193 180 158 160 155 152 154 157 156 154 159 165 164 161 165 170 174 177 177 176 179 183 186 183 181 193 199 196 179 171 176 176 181 187 187 165 202 53 198 274
163 166 141 151 218 164 165 261 290 167 157 148 145 145 141 138 143 146 149 155 155 158 158 160 165 170 175 170 166 175 177 179 187 198 204 193 185 188 190 180 175 190 196 198 195 210 228 214 237
Height
1503 1503 1503 1504 1505 1509 1507 1496 1489 1488 1488 1489 1488 1489 1493 1497 1501 1510 1507 1506 1508 1508 1508 1509 1510 1510 1511 1512 1512 1513 1513 1513 1514 1515 1516 1517 1518 1519 1520 1521 1522 1523 1524 1525 1526 1527 1528 1529 1530
1503 1503 1504 1505 1509 1517 1509 1493 1490 1488 1489 1489 1491 1492 1495 1499 1501 1503 1505 1507 1508 1508 1509 1510 1511 1511 1512 1512 1513 1513 1514 1514 1515 1516 1517 1518 1519 1520 1521 1522 1523 1524 1525 1526 1527 1528 1529 1530 1531
1503 1504 1505 1506 1510 1512 1504 1492 1490 1489 1489 1489 1492 1495 1497 1501 1503 1504 1506 1507 1509 1509 1510 1511 1511 1512 1513 1513 1514 1514 1514 1515 1516 1517 1518 1519 1520 1521 1522 1523 1524 1525 1526 1527 1528 1529 1529 1530 1530
1504 1505 1506 1509 1509 1499 1493 1490 1489 1490 1491 1491 1493 1498 1501 1503 1503 1505 1506 1508 1509 1510 1511 1512 1512 1513 1513 1514 1515 1515 1516 1516 1517 1518 1519 1520 1521 1522 1523 1524 1525 1526 1527 1527 1528 1529 1530 1529 1529
1504 1505 1508 1510 1504 1494 1488 1487 1488 1489 1491 1494 1494 1499 1503 1505 1504 1505 1507 1509 1509 1511 1512 1513 1513 1514 1514 1515 1516 1517 1517 1518 1519 1520 1521 1521 1522 1523 1524 1525 1525 1526 1527 1528 1529 1529 1530 1528 1527
1505 1505 1512 1513 1502 1493 1490 1488 1489 1491 1494 1496 1497 1500 1505 1506 1505 1507 1509 1510 1511 1512 1513 1514 1515 1515 1516 1516 1517 1518 1519 1519 1520 1521 1522 1522 1523 1524 1525 1526 1526 1527 1528 1529 1530 1530 1530 1529 1528
1506 1507 1510 1506 1501 1496 1491 1489 1489 1492 1494 1496 1497 1501 1505 1507 1507 1508 1510 1511 1512 1513 1514 1515 1516 1516 1517 1518 1519 1519 1520 1521 1522 1522 1523 1524 1525 1525 1526 1527 1528 1528 1529 1530 1530 1531 1530 1530 1530
1503 1506 1506 1503 1500 1497 1490 1490 1491 1492 1495 1498 1498 1501 1505 1507 1509 1510 1511 1512 1513 1514 1515 1516 1516 1517 1518 1519 1520 1521 1521 1522 1523 1523 1524 1525 1526 1526 1527 1528 1529 1529 1530 1531 1531 1531 1531 1531 1531
1503 1508 1509 1501 1498 1495 1490 1491 1493 1494 1496 1498 1499 1500 1503 1506 1509 1511 1512 1513 1514 1515 1516 1517 1517 1518 1519 1520 1520 1521 1522 1523 1524 1524 1525 1526 1526 1527 1528 1529 1529 1530 1531 1531 1531 1532 1532 1532 1532
1501 1507 1500 1490 1489 1490 1490 1491 1493 1496 1498 1500 1501 1503 1505 1507 1509 1510 1512 1513 1514 1515 1516 1516 1517 1518 1519 1520 1521 1522 1523 1524 1524 1525 1526 1526 1527 1528 1528 1529 1530 1530 1531 1531 1532 1532 1532 1532 1532
1497 1498 1490 1487 1487 1488 1490 1491 1493 1496 1500 1500 1501 1503 1506 1508 1510 1511 1512 1513 1514 1515 1516 1517 1517 1518 1520 1521 1522 1523 1524 1524 1525 1526 1527 1527 1528 1528 1528 1529 1530 1530 1531 1531 1532 1532 1532 1532 1532
1495 1491 1488 1487 1487 1488 1490 1491 1493 1495 1498 1499 1500 1503 1506 1508 1510 1511 1512 1514 1515 1516 1517 1517 1518 1519 1520 1521 1522 1523 1524 1525 1526 1526 1527 1527 1528 1528 1529 1529 1530 1531 1531 1532 1532 1532 1532 1532 1532
1494 1490 1488 1487 1487 1488 1489 1491 1493 1496 1498 1500 1502 1504 1506 1508 1510 1512 1513 1514 1515 1516 1517 1518 1518 1519 1521 1522 1523 1523 1524 1525 1526 1527 1527 1528 1528 1528 1529 1530 1530 1531 1531 1532 1532 1532 1532 1531 1531
1492 1489 1488 1487 1487 1490 1490 1492 1494 1498 1499 1501 1503 1505 1507 1509 1510 1512 1513 1514 1515 1516 1517 1518 1519 1520 1521 1522 1523 1523 1524 1525 1526 1527 1527 1528 1528 1529 1529 1530 1530 1531 1531 1532 1532 1532 1531 1531 1531
1490 1490 1490 1488 1488 1491 1492 1497 1495 1497 1499 1502 1504 1505 1507 1509 1511 1512 1513 1514 1515 1517 1518 1519 1519 1521 1521 1522 1523 1524 1524 1525 1526 1526 1527 1528 1528 1529 1529 1530 1530 1531 1531 1531 1531 1531 1531 1531 1531
1492 1497 1502 1492 1489 1491 1496 1507 1496 1497 1498 1501 1504 1506 1508 1509 1511 1512 1513 1514 1516 1517 1518 1519 1520 1521 1521 1522 1523 1524 1524 1525 1526 1526 1527 1528 1528 1529 1529 1530 1530 1531 1531 1531 1531 1531 1531 1530 1530
1502 1508 1506 1497 1489 1490 1495 1503 1496 1497 1498 1501 1503 1506 1508 1509 1511 1512 1513 1514 1516 1517 1518 1519 1520 1521 1521 1522 1523 1524 1525 1525 1525 1526 1527 1528 1528 1529 1529 1530 1530 1530 1530 1531 1531 1531 1530 1530 1530
1510 1508 1505 1502 1492 1492 1496 1498 1495 1497 1497 1499 1502 1505 1507 1509 1510 1511 1512 1514 1515 1517 1518 1519 1520 1521 1522 1522 1523 1524 1525 1525 1525 1526 1527 1527 1528 1528 1529 1529 1529 1529 1530 1530 1530 1530 1530 1530 1529
1496 1500 1503 1497 1490 1494 1497 1496 1494 1495 1497 1499 1501 1503 1505 1507 1509 1511 1512 1513 1515 1516 1517 1518 1519 1520 1521 1522 1522 1523 1524 1524 1525 1526 1526 1527 1527 1528 1528 1528 1528 1529 1529 1529 1529 1529 1529 1529 1529
1492 1500 1501 1494 1488 1494 1498 1496 1491 1491 1493 1494 1497 1500 1503 1506 1508 1509 1511 1512 1513 1515 1516 1518 1519 1520 1520 1521 1522 1523 1523 1524 1525 1526 1526 1526 1526 1527 1527 1527 1527 1528 1528 1528 1528 1528 1528 1528 1528
1492 1497 1496 1497 1492 1492 1498 1503 1497 1493 1493 1496 1497 1498 1500 1503 1505 1507 1509 1510 1512 1514 1515 1516 1517 1519 1520 1521 1522 1523 1523 1524 1524 1525 1525 1525 1526 1526 1526 1526 1527 1527 1527 1527 1527 1527 1527 1527 1527
1494 1485 1486 1491 1501 1508 1503 1520 1504 1496 1494 1495 1496 1498 1499 1502 1504 1506 1507 1509 1511 1512 1514 1515 1517 1518 1519 1520 1521 1521 1521 1522 1523 1523 1524 1524 1525 1525 1525 1525 1526 1526 1526 1526 1526 1526 1526 1526 1526
1483 1478 1483 1489 1500 1509 1507 1517 1510 1497 1497 1494 1493 1494 1496 1498 1501 1503 1505 1507 1509 1511 1513 1514 1516 1517 1518 1519 1520 1520 1521 1522 1522 1523 1523 1523 1524 1524 1524 1524 1524 1524 1524 1524 1524 1524 1525 1525 1525
1475 1482 1488 1496 1507 1523 1511 1516 1514 1500 1493 1491 1491 1492 1493 1496 1498 1501 1504 1507 1508 1510 1512 1513 1515 1516 1517 1518 1519 1519 1520 1521 1521 1521 1522 1522 1522 1522 1523 1523 1523 1523 1523 1523 1523 1523 1523 1523 1523
1479 1498 1519 1523 1529 1525 1508 1511 1509 1488 1483 1485 1487 1489 1492 1494 1497 1500 1503 1505 1507 1508 1510 1511 1513 1514 1515 1517 1517 1518 1519 1519 1520 1520 1520 1520 1521 1521 1521 1521 1521 1521 1521 1521 1521 1521 1521 1521 1521
1481 1491 1517 1529 1532 1523 1509 1512 1499 1483 1480 1481 1483 1486 1490 1493 1496 1498 1501 1503 1505 1506 1508 1509 1511 1512 1514 1515 1516 1517 1518 1518 1518 1519 1519 1519 1519 1520 1520 1520 1520 1520 1520 1520 1520 1520 1520 1519 1519
1480 1487 1489 1508 1515 1524 1516 1505 1492 1483 1482 1483 1483 1485 1488 1491 1494 1497 1499 1501 1503 1504 1506 1507 1509 1510 1512 1513 1514 1515 1516 1516 1517 1518 1518 1518 1518 1518 1518 1518 1518 1518 1518 1518 1518 1518 1518 1518 1517
1467 1476 1494 1508 1523 1528 1517 1510 1505 1491 1487 1485 1485 1486 1487 1489 1492 1495 1497 1499 1501 1503 1504 1506 1507 1508 1510 1511 1512 1513 1514 1514 1515 1516 1516 1516 1516 1516 1516 1516 1516 1516 1517 1517 1517 1516 1516 1516 1516
1473 1478 1489 1503 1507 1523 1527 1515 1485 1485 1483 1484 1485 1486 1487 1489 1491 1494 1496 1498 1501 1502 1504 1505 1506 1507 1509 1510 1510 1511 1512 1513 1513 1513 1514 1514 1514 1514 1514 1514 1514 1515 1515 1515 1515 1514 1514 1514 1514
1464 1473 1486 1503 1507 1510 1517 1511 1479 1479 1480 1482 1483 1486 1487 1488 1490 1492 1495 1497 1499 1500 1502 1503 1505 1506 1507 1508 1509 1510 1511 1511 1511 1511 1512 1512 1513 1512 1512 1513 1512 1513 1513 1513 1512 1512 1511 1511 1511